Year,Month,Day,Hour,Minute,Value (Times are PST for temperature in C)
2007,04,19,00,00,5.40
2007,04,19,00,01,5.40
2007,04,19,00,02,5.40
2007,04,19,00,03,5.40
2007,04,19,00,04,5.40
2007,04,19,00,05,5.40
2007,04,19,00,06,5.40
2007,04,19,00,07,5.40
2007,04,19,00,08,5.30
2007,04,19,00,09,5.40
2007,04,19,00,10,5.40
2007,04,19,00,11,5.40
2007,04,19,00,12,5.40
2007,04,19,00,13,5.40
2007,04,19,00,14,5.40
2007,04,19,00,15,5.40
2007,04,19,00,16,5.40
2007,04,19,00,17,5.40
2007,04,19,00,18,5.40
2007,04,19,00,19,5.50
2007,04,19,00,20,5.50
2007,04,19,00,21,5.50
2007,04,19,00,22,5.50
2007,04,19,00,23,5.50
2007,04,19,00,24,5.50
2007,04,19,00,25,5.50
2007,04,19,00,26,5.50
2007,04,19,00,27,5.50
2007,04,19,00,28,5.50
2007,04,19,00,29,5.50
2007,04,19,00,30,5.50
2007,04,19,00,31,5.50
2007,04,19,00,32,5.50
2007,04,19,00,33,5.50
2007,04,19,00,34,5.50
2007,04,19,00,35,5.50
2007,04,19,00,36,5.40
2007,04,19,00,37,5.40
2007,04,19,00,38,5.40
2007,04,19,00,39,5.40
2007,04,19,00,40,5.40
2007,04,19,00,41,5.40
2007,04,19,00,42,5.40
2007,04,19,00,43,5.40
2007,04,19,00,44,5.40
2007,04,19,00,45,5.40
2007,04,19,00,46,5.40
2007,04,19,00,47,5.40
2007,04,19,00,48,5.40
2007,04,19,00,49,5.40
2007,04,19,00,50,5.40
2007,04,19,00,51,5.40
2007,04,19,00,52,5.40
2007,04,19,00,53,5.40
2007,04,19,00,54,5.40
2007,04,19,00,55,5.40
2007,04,19,00,56,5.40
2007,04,19,00,57,5.40
2007,04,19,00,58,5.40
2007,04,19,00,59,5.40
2007,04,19,01,00,5.40
2007,04,19,01,01,5.40
2007,04,19,01,02,5.40
2007,04,19,01,03,5.40
2007,04,19,01,04,5.40
2007,04,19,01,05,5.40
2007,04,19,01,06,5.40
2007,04,19,01,07,5.40
2007,04,19,01,08,5.40
2007,04,19,01,09,5.40
2007,04,19,01,10,5.40
2007,04,19,01,11,5.40
2007,04,19,01,12,5.30
2007,04,19,01,13,5.30
2007,04,19,01,14,5.30
2007,04,19,01,15,5.30
2007,04,19,01,16,5.30
2007,04,19,01,17,5.30
2007,04,19,01,18,5.30
2007,04,19,01,19,5.30
2007,04,19,01,20,5.30
2007,04,19,01,21,5.20
2007,04,19,01,22,5.20
2007,04,19,01,23,5.20
2007,04,19,01,24,5.20
2007,04,19,01,25,5.20
2007,04,19,01,26,5.20
2007,04,19,01,27,5.20
2007,04,19,01,28,5.20
2007,04,19,01,29,5.20
2007,04,19,01,30,5.20
2007,04,19,01,31,5.20
2007,04,19,01,32,5.20
2007,04,19,01,33,5.10
2007,04,19,01,34,5.10
2007,04,19,01,35,5.10
2007,04,19,01,36,5.10
2007,04,19,01,37,5.10
2007,04,19,01,38,5.10
2007,04,19,01,39,5.10
2007,04,19,01,40,5.10
2007,04,19,01,41,5.10
2007,04,19,01,42,5.10
2007,04,19,01,43,5.10
2007,04,19,01,44,5.10
2007,04,19,01,45,5.10
2007,04,19,01,46,5.10
2007,04,19,01,47,5.10
2007,04,19,01,48,5.10
2007,04,19,01,49,5.10
2007,04,19,01,50,5.10
2007,04,19,01,51,5.10
2007,04,19,01,52,5.10
2007,04,19,01,53,5.10
2007,04,19,01,54,5.10
2007,04,19,01,55,5.10
2007,04,19,01,56,5.10
2007,04,19,01,57,5.10
2007,04,19,01,58,5.10
2007,04,19,01,59,5.10
2007,04,19,02,00,5.10
2007,04,19,02,01,5.10
2007,04,19,02,02,5.10
2007,04,19,02,03,5.10
2007,04,19,02,04,5.10
2007,04,19,02,05,5.10
2007,04,19,02,06,5.10
2007,04,19,02,07,5.10
2007,04,19,02,08,5.10
2007,04,19,02,09,5.10
2007,04,19,02,10,5.10
2007,04,19,02,11,5.10
2007,04,19,02,12,5.10
2007,04,19,02,13,5.00
2007,04,19,02,14,4.90
2007,04,19,02,15,4.90
2007,04,19,02,16,4.90
2007,04,19,02,17,4.90
2007,04,19,02,18,4.90
2007,04,19,02,19,4.90
2007,04,19,02,20,4.90
2007,04,19,02,21,4.90
2007,04,19,02,22,4.90
2007,04,19,02,23,4.90
2007,04,19,02,24,4.90
2007,04,19,02,25,4.90
2007,04,19,02,26,4.90
2007,04,19,02,27,4.90
2007,04,19,02,28,4.90
2007,04,19,02,29,4.90
2007,04,19,02,30,4.90
2007,04,19,02,31,4.90
2007,04,19,02,32,4.90
2007,04,19,02,33,5.00
2007,04,19,02,34,5.10
2007,04,19,02,35,5.10
2007,04,19,02,36,5.10
2007,04,19,02,37,5.10
2007,04,19,02,38,5.10
2007,04,19,02,39,5.10
2007,04,19,02,40,5.10
2007,04,19,02,41,5.10
2007,04,19,02,42,5.10
2007,04,19,02,43,5.10
2007,04,19,02,44,5.10
2007,04,19,02,45,5.00
2007,04,19,02,46,4.90
2007,04,19,02,47,4.90
2007,04,19,02,48,4.90
2007,04,19,02,49,4.90
2007,04,19,02,50,4.90
2007,04,19,02,51,4.90
2007,04,19,02,52,4.90
2007,04,19,02,53,4.80
2007,04,19,02,54,4.80
2007,04,19,02,55,4.80
2007,04,19,02,56,4.70
2007,04,19,02,57,4.70
2007,04,19,02,58,4.70
2007,04,19,02,59,4.60
2007,04,19,03,00,4.60
2007,04,19,03,01,4.60
2007,04,19,03,02,4.60
2007,04,19,03,03,4.60
2007,04,19,03,04,4.60
2007,04,19,03,05,4.60
2007,04,19,03,06,4.60
2007,04,19,03,07,4.60
2007,04,19,03,08,4.60
2007,04,19,03,09,4.60
2007,04,19,03,10,4.50
2007,04,19,03,11,4.50
2007,04,19,03,12,4.50
2007,04,19,03,13,4.50
2007,04,19,03,14,4.50
2007,04,19,03,15,4.50
2007,04,19,03,16,4.50
2007,04,19,03,17,4.50
2007,04,19,03,18,4.50
2007,04,19,03,19,4.50
2007,04,19,03,20,4.50
2007,04,19,03,21,4.50
2007,04,19,03,22,4.50
2007,04,19,03,23,4.50
2007,04,19,03,24,4.50
2007,04,19,03,25,4.50
2007,04,19,03,26,4.50
2007,04,19,03,27,4.60
2007,04,19,03,28,4.50
2007,04,19,03,29,4.50
2007,04,19,03,30,4.50
2007,04,19,03,31,4.50
2007,04,19,03,32,4.50
2007,04,19,03,33,4.50
2007,04,19,03,34,4.60
2007,04,19,03,35,4.60
2007,04,19,03,36,4.60
2007,04,19,03,37,4.60
2007,04,19,03,38,4.60
2007,04,19,03,39,4.60
2007,04,19,03,40,4.60
2007,04,19,03,41,4.60
2007,04,19,03,42,4.60
2007,04,19,03,43,4.60
2007,04,19,03,44,4.60
2007,04,19,03,45,4.60
2007,04,19,03,46,4.60
2007,04,19,03,47,4.60
2007,04,19,03,48,4.70
2007,04,19,03,49,4.70
2007,04,19,03,50,4.70
2007,04,19,03,51,4.70
2007,04,19,03,52,4.70
2007,04,19,03,53,4.70
2007,04,19,03,54,4.70
2007,04,19,03,55,4.70
2007,04,19,03,56,4.70
2007,04,19,03,57,4.70
2007,04,19,03,58,4.70
2007,04,19,03,59,4.70
2007,04,19,04,00,4.70
2007,04,19,04,01,4.70
2007,04,19,04,02,4.70
2007,04,19,04,03,4.60
2007,04,19,04,04,4.60
2007,04,19,04,05,4.60
2007,04,19,04,06,4.60
2007,04,19,04,07,4.60
2007,04,19,04,08,4.60
2007,04,19,04,09,4.60
2007,04,19,04,10,4.60
2007,04,19,04,11,4.60
2007,04,19,04,12,4.50
2007,04,19,04,13,4.50
2007,04,19,04,14,4.50
2007,04,19,04,15,4.40
2007,04,19,04,16,4.40
2007,04,19,04,17,4.30
2007,04,19,04,18,4.20
2007,04,19,04,19,4.20
2007,04,19,04,20,4.10
2007,04,19,04,21,4.00
2007,04,19,04,22,4.00
2007,04,19,04,23,3.90
2007,04,19,04,24,3.80
2007,04,19,04,25,3.80
2007,04,19,04,26,3.70
2007,04,19,04,27,3.70
2007,04,19,04,28,3.60
2007,04,19,04,29,3.60
2007,04,19,04,30,3.60
2007,04,19,04,31,3.60
2007,04,19,04,32,3.70
2007,04,19,04,33,3.70
2007,04,19,04,34,3.60
2007,04,19,04,35,3.60
2007,04,19,04,36,3.60
2007,04,19,04,37,3.60
2007,04,19,04,38,3.50
2007,04,19,04,39,3.50
2007,04,19,04,40,3.50
2007,04,19,04,41,3.40
2007,04,19,04,42,3.40
2007,04,19,04,43,3.40
2007,04,19,04,44,3.40
2007,04,19,04,45,3.40
2007,04,19,04,46,3.40
2007,04,19,04,47,3.40
2007,04,19,04,48,3.30
2007,04,19,04,49,3.30
2007,04,19,04,50,3.30
2007,04,19,04,51,3.30
2007,04,19,04,52,3.30
2007,04,19,04,53,3.20
2007,04,19,04,54,3.20
2007,04,19,04,55,3.20
2007,04,19,04,56,3.10
2007,04,19,04,57,3.10
2007,04,19,04,58,3.20
2007,04,19,04,59,3.20
2007,04,19,05,00,3.20
2007,04,19,05,01,3.10
2007,04,19,05,02,3.10
2007,04,19,05,03,3.10
2007,04,19,05,04,3.10
2007,04,19,05,05,3.10
2007,04,19,05,06,3.10
2007,04,19,05,07,3.10
2007,04,19,05,08,3.00
2007,04,19,05,09,2.90
2007,04,19,05,10,2.90
2007,04,19,05,11,2.90
2007,04,19,05,12,2.90
2007,04,19,05,13,2.90
2007,04,19,05,14,3.00
2007,04,19,05,15,3.10
2007,04,19,05,16,3.10
2007,04,19,05,17,3.10
2007,04,19,05,18,3.10
2007,04,19,05,19,3.10
2007,04,19,05,20,3.10
2007,04,19,05,21,3.10
2007,04,19,05,22,3.10
2007,04,19,05,23,3.10
2007,04,19,05,24,3.10
2007,04,19,05,25,3.10
2007,04,19,05,26,3.10
2007,04,19,05,27,2.90
2007,04,19,05,28,2.90
2007,04,19,05,29,2.90
2007,04,19,05,30,2.90
2007,04,19,05,31,2.80
2007,04,19,05,32,2.70
2007,04,19,05,33,2.70
2007,04,19,05,34,2.70
2007,04,19,05,35,2.60
2007,04,19,05,36,2.50
2007,04,19,05,37,2.50
2007,04,19,05,38,2.40
2007,04,19,05,39,2.40
2007,04,19,05,40,2.30
2007,04,19,05,41,2.20
2007,04,19,05,42,2.20
2007,04,19,05,43,2.20
2007,04,19,05,44,2.20
2007,04,19,05,45,2.20
2007,04,19,05,46,2.10
2007,04,19,05,47,2.10
2007,04,19,05,48,2.00
2007,04,19,05,49,2.00
2007,04,19,05,50,1.90
2007,04,19,05,51,1.90
2007,04,19,05,52,1.80
2007,04,19,05,53,1.80
2007,04,19,05,54,1.80
2007,04,19,05,55,1.80
2007,04,19,05,56,1.70
2007,04,19,05,57,1.70
2007,04,19,05,58,1.60
2007,04,19,05,59,1.60
2007,04,19,06,00,1.50
2007,04,19,06,01,1.50
2007,04,19,06,02,1.50
2007,04,19,06,03,1.40
2007,04,19,06,04,1.40
2007,04,19,06,05,1.40
2007,04,19,06,06,1.40
2007,04,19,06,07,1.30
2007,04,19,06,08,1.30
2007,04,19,06,09,1.30
2007,04,19,06,10,1.30
2007,04,19,06,11,1.30
2007,04,19,06,12,1.30
2007,04,19,06,13,1.30
2007,04,19,06,14,1.20
2007,04,19,06,15,1.20
2007,04,19,06,16,1.20
2007,04,19,06,17,1.20
2007,04,19,06,18,1.10
2007,04,19,06,19,1.10
2007,04,19,06,20,1.10
2007,04,19,06,21,1.10
2007,04,19,06,22,1.10
2007,04,19,06,23,1.10
2007,04,19,06,24,1.00
2007,04,19,06,25,1.00
2007,04,19,06,26,1.00
2007,04,19,06,27,1.00
2007,04,19,06,28,1.00
2007,04,19,06,29,0.90
2007,04,19,06,30,0.90
2007,04,19,06,31,0.90
2007,04,19,06,32,0.90
2007,04,19,06,33,0.90
2007,04,19,06,34,0.80
2007,04,19,06,35,0.80
2007,04,19,06,36,0.90
2007,04,19,06,37,0.90
2007,04,19,06,38,0.90
2007,04,19,06,39,0.90
2007,04,19,06,40,0.90
2007,04,19,06,41,0.90
2007,04,19,06,42,0.90
2007,04,19,06,43,0.80
2007,04,19,06,44,0.80
2007,04,19,06,45,0.80
2007,04,19,06,46,0.80
2007,04,19,06,47,0.80
2007,04,19,06,48,0.80
2007,04,19,06,49,0.80
2007,04,19,06,50,0.70
2007,04,19,06,51,0.70
2007,04,19,06,52,0.70
2007,04,19,06,53,0.70
2007,04,19,06,54,0.70
2007,04,19,06,55,0.70
2007,04,19,06,56,0.70
2007,04,19,06,57,0.70
2007,04,19,06,58,0.70
2007,04,19,06,59,0.70
2007,04,19,07,00,0.70
2007,04,19,07,01,0.80
2007,04,19,07,02,0.80
2007,04,19,07,03,0.80
2007,04,19,07,04,0.80
2007,04,19,07,05,0.80
2007,04,19,07,06,0.80
2007,04,19,07,07,0.80
2007,04,19,07,08,0.80
2007,04,19,07,09,0.80
2007,04,19,07,10,0.80
2007,04,19,07,11,0.80
2007,04,19,07,12,0.80
2007,04,19,07,13,0.80
2007,04,19,07,14,0.80
2007,04,19,07,15,0.80
2007,04,19,07,16,0.90
2007,04,19,07,17,1.00
2007,04,19,07,18,1.00
2007,04,19,07,19,1.10
2007,04,19,07,20,1.10
2007,04,19,07,21,1.20
2007,04,19,07,22,1.30
2007,04,19,07,23,1.30
2007,04,19,07,24,1.40
2007,04,19,07,25,1.50
2007,04,19,07,26,1.50
2007,04,19,07,27,1.50
2007,04,19,07,28,1.60
2007,04,19,07,29,1.70
2007,04,19,07,30,1.70
2007,04,19,07,31,1.80
2007,04,19,07,32,1.90
2007,04,19,07,33,2.00
2007,04,19,07,34,2.10
2007,04,19,07,35,2.20
2007,04,19,07,36,2.20
2007,04,19,07,37,2.30
2007,04,19,07,38,2.40
2007,04,19,07,39,2.50
2007,04,19,07,40,2.60
2007,04,19,07,41,2.60
2007,04,19,07,42,2.70
2007,04,19,07,43,2.70
2007,04,19,07,44,2.80
2007,04,19,07,45,2.90
2007,04,19,07,46,2.90
2007,04,19,07,47,3.00
2007,04,19,07,48,3.10
2007,04,19,07,49,3.20
2007,04,19,07,50,3.30
2007,04,19,07,51,3.30
2007,04,19,07,52,3.40
2007,04,19,07,53,3.50
2007,04,19,07,54,3.60
2007,04,19,07,55,3.70
2007,04,19,07,56,3.70
2007,04,19,07,57,3.80
2007,04,19,07,58,3.90
2007,04,19,07,59,4.00
2007,04,19,08,00,4.10
2007,04,19,08,01,4.10
2007,04,19,08,02,4.20
2007,04,19,08,03,4.30
2007,04,19,08,04,4.30
2007,04,19,08,05,4.40
2007,04,19,08,06,4.40
2007,04,19,08,07,4.50
2007,04,19,08,08,4.60
2007,04,19,08,09,4.60
2007,04,19,08,10,4.70
2007,04,19,08,11,4.80
2007,04,19,08,12,4.80
2007,04,19,08,13,4.90
2007,04,19,08,14,5.00
2007,04,19,08,15,5.10
2007,04,19,08,16,5.10
2007,04,19,08,17,5.20
2007,04,19,08,18,5.30
2007,04,19,08,19,5.30
2007,04,19,08,20,5.40
2007,04,19,08,21,5.50
2007,04,19,08,22,5.60
2007,04,19,08,23,5.60
2007,04,19,08,24,5.70
2007,04,19,08,25,5.70
2007,04,19,08,26,5.80
2007,04,19,08,27,5.90
2007,04,19,08,28,5.90
2007,04,19,08,29,6.00
2007,04,19,08,30,6.00
2007,04,19,08,31,6.10
2007,04,19,08,32,6.10
2007,04,19,08,33,6.20
2007,04,19,08,34,6.20
2007,04,19,08,35,6.30
2007,04,19,08,36,6.30
2007,04,19,08,37,6.40
2007,04,19,08,38,6.50
2007,04,19,08,39,6.60
2007,04,19,08,40,6.70
2007,04,19,08,41,6.80
2007,04,19,08,42,6.90
2007,04,19,08,43,7.00
2007,04,19,08,44,7.20
2007,04,19,08,45,7.30
2007,04,19,08,46,7.40
2007,04,19,08,47,7.50
2007,04,19,08,48,7.70
2007,04,19,08,49,7.80
2007,04,19,08,50,7.80
2007,04,19,08,51,7.90
2007,04,19,08,52,8.00
2007,04,19,08,53,8.10
2007,04,19,08,54,8.20
2007,04,19,08,55,8.20
2007,04,19,08,56,8.20
2007,04,19,08,57,8.30
2007,04,19,08,58,8.20
2007,04,19,08,59,8.20
2007,04,19,09,00,8.20
2007,04,19,09,01,8.20
2007,04,19,09,02,8.20
2007,04,19,09,03,8.20
2007,04,19,09,04,8.20
2007,04,19,09,05,8.20
2007,04,19,09,06,8.20
2007,04,19,09,07,8.30
2007,04,19,09,08,8.30
2007,04,19,09,09,8.40
2007,04,19,09,10,8.40
2007,04,19,09,11,8.50
2007,04,19,09,12,8.50
2007,04,19,09,13,8.50
2007,04,19,09,14,8.50
2007,04,19,09,15,8.50
2007,04,19,09,16,8.60
2007,04,19,09,17,8.70
2007,04,19,09,18,8.70
2007,04,19,09,19,8.70
2007,04,19,09,20,8.70
2007,04,19,09,21,8.60
2007,04,19,09,22,8.60
2007,04,19,09,23,8.60
2007,04,19,09,24,8.60
2007,04,19,09,25,8.60
2007,04,19,09,26,8.70
2007,04,19,09,27,8.70
2007,04,19,09,28,8.80
2007,04,19,09,29,8.90
2007,04,19,09,30,8.90
2007,04,19,09,31,9.00
2007,04,19,09,32,9.00
2007,04,19,09,33,9.10
2007,04,19,09,34,9.20
2007,04,19,09,35,9.20
2007,04,19,09,36,9.20
2007,04,19,09,37,9.20
2007,04,19,09,38,9.30
2007,04,19,09,39,9.30
2007,04,19,09,40,9.40
2007,04,19,09,41,9.40
2007,04,19,09,42,9.40
2007,04,19,09,43,9.30
2007,04,19,09,44,9.30
2007,04,19,09,45,9.30
2007,04,19,09,46,9.30
2007,04,19,09,47,9.40
2007,04,19,09,48,9.40
2007,04,19,09,49,9.30
2007,04,19,09,50,9.30
2007,04,19,09,51,9.30
2007,04,19,09,52,9.30
2007,04,19,09,53,9.30
2007,04,19,09,54,9.40
2007,04,19,09,55,9.50
2007,04,19,09,56,9.60
2007,04,19,09,57,9.60
2007,04,19,09,58,9.70
2007,04,19,09,59,9.70
2007,04,19,10,00,9.70
2007,04,19,10,01,9.70
2007,04,19,10,02,9.80
2007,04,19,10,03,9.80
2007,04,19,10,04,9.90
2007,04,19,10,05,9.90
2007,04,19,10,06,9.90
2007,04,19,10,07,9.90
2007,04,19,10,08,9.90
2007,04,19,10,09,9.80
2007,04,19,10,10,9.80
2007,04,19,10,11,9.80
2007,04,19,10,12,9.80
2007,04,19,10,13,9.80
2007,04,19,10,14,9.70
2007,04,19,10,15,9.70
2007,04,19,10,16,9.60
2007,04,19,10,17,9.50
2007,04,19,10,18,9.50
2007,04,19,10,19,9.60
2007,04,19,10,20,9.50
2007,04,19,10,21,9.50
2007,04,19,10,22,9.50
2007,04,19,10,23,9.60
2007,04,19,10,24,9.60
2007,04,19,10,25,9.60
2007,04,19,10,26,9.60
2007,04,19,10,27,9.60
2007,04,19,10,28,9.50
2007,04,19,10,29,9.50
2007,04,19,10,30,9.60
2007,04,19,10,31,9.70
2007,04,19,10,32,9.70
2007,04,19,10,33,9.70
2007,04,19,10,34,9.70
2007,04,19,10,35,9.60
2007,04,19,10,36,9.60
2007,04,19,10,37,9.60
2007,04,19,10,38,9.50
2007,04,19,10,39,9.50
2007,04,19,10,40,9.50
2007,04,19,10,41,9.50
2007,04,19,10,42,9.40
2007,04,19,10,43,9.40
2007,04,19,10,44,9.50
2007,04,19,10,45,9.50
2007,04,19,10,46,9.50
2007,04,19,10,47,9.50
2007,04,19,10,48,9.60
2007,04,19,10,49,9.60
2007,04,19,10,50,9.60
2007,04,19,10,51,9.60
2007,04,19,10,52,9.60
2007,04,19,10,53,9.70
2007,04,19,10,54,9.70
2007,04,19,10,55,9.70
2007,04,19,10,56,9.70
2007,04,19,10,57,9.70
2007,04,19,10,58,9.70
2007,04,19,10,59,9.80
2007,04,19,11,00,9.80
2007,04,19,11,01,9.80
2007,04,19,11,02,9.90
2007,04,19,11,03,10.00
2007,04,19,11,04,10.10
2007,04,19,11,05,10.30
2007,04,19,11,06,10.40
2007,04,19,11,07,10.60
2007,04,19,11,08,10.70
2007,04,19,11,09,10.80
2007,04,19,11,10,10.80
2007,04,19,11,11,10.80
2007,04,19,11,12,10.80
2007,04,19,11,13,10.80
2007,04,19,11,14,10.80
2007,04,19,11,15,10.90
2007,04,19,11,16,11.10
2007,04,19,11,17,11.20
2007,04,19,11,18,11.30
2007,04,19,11,19,11.30
2007,04,19,11,20,11.40
2007,04,19,11,21,11.40
2007,04,19,11,22,11.40
2007,04,19,11,23,11.30
2007,04,19,11,24,11.30
2007,04,19,11,25,11.30
2007,04,19,11,26,11.30
2007,04,19,11,27,11.20
2007,04,19,11,28,11.30
2007,04,19,11,29,11.20
2007,04,19,11,30,11.20
2007,04,19,11,31,11.30
2007,04,19,11,32,11.30
2007,04,19,11,33,11.40
2007,04,19,11,34,11.40
2007,04,19,11,35,11.50
2007,04,19,11,36,11.70
2007,04,19,11,37,11.90
2007,04,19,11,38,12.00
2007,04,19,11,39,12.00
2007,04,19,11,40,12.00
2007,04,19,11,41,12.00
2007,04,19,11,42,11.80
2007,04,19,11,43,11.70
2007,04,19,11,44,11.70
2007,04,19,11,45,11.70
2007,04,19,11,46,11.60
2007,04,19,11,47,11.60
2007,04,19,11,48,11.60
2007,04,19,11,49,11.60
2007,04,19,11,50,11.60
2007,04,19,11,51,11.60
2007,04,19,11,52,11.60
2007,04,19,11,53,11.60
2007,04,19,11,54,11.40
2007,04,19,11,55,11.30
2007,04,19,11,56,11.10
2007,04,19,11,57,11.00
2007,04,19,11,58,10.80
2007,04,19,11,59,10.70
2007,04,19,12,00,10.60
2007,04,19,12,01,10.50
2007,04,19,12,02,10.40
2007,04,19,12,03,10.40
2007,04,19,12,04,10.40
2007,04,19,12,05,10.30
2007,04,19,12,06,10.30
2007,04,19,12,07,10.30
2007,04,19,12,08,10.30
2007,04,19,12,09,10.20
2007,04,19,12,10,10.10
2007,04,19,12,11,10.10
2007,04,19,12,12,10.00
2007,04,19,12,13,9.90
2007,04,19,12,14,9.90
2007,04,19,12,15,9.90
2007,04,19,12,16,9.90
2007,04,19,12,17,9.80
2007,04,19,12,18,9.80
2007,04,19,12,19,9.80
2007,04,19,12,20,9.80
2007,04,19,12,21,9.80
2007,04,19,12,22,9.80
2007,04,19,12,23,9.80
2007,04,19,12,24,9.70
2007,04,19,12,25,9.70
2007,04,19,12,26,9.70
2007,04,19,12,27,9.70
2007,04,19,12,28,9.70
2007,04,19,12,29,9.70
2007,04,19,12,30,9.70
2007,04,19,12,31,9.80
2007,04,19,12,32,9.80
2007,04,19,12,33,9.80
2007,04,19,12,34,9.90
2007,04,19,12,35,9.90
2007,04,19,12,36,9.90
2007,04,19,12,37,9.90
2007,04,19,12,38,9.90
2007,04,19,12,39,9.90
2007,04,19,12,40,9.90
2007,04,19,12,41,9.90
2007,04,19,12,42,9.90
2007,04,19,12,43,9.90
2007,04,19,12,44,9.90
2007,04,19,12,45,9.90
2007,04,19,12,46,9.90
2007,04,19,12,47,9.90
2007,04,19,12,48,9.90
2007,04,19,12,49,9.90
2007,04,19,12,50,9.90
2007,04,19,12,51,9.90
2007,04,19,12,52,9.90
2007,04,19,12,53,10.00
2007,04,19,12,54,10.10
2007,04,19,12,55,10.10
2007,04,19,12,56,10.20
2007,04,19,12,57,10.20
2007,04,19,12,58,10.30
2007,04,19,12,59,10.30
2007,04,19,13,00,10.30
2007,04,19,13,01,10.30
2007,04,19,13,02,10.30
2007,04,19,13,03,10.40
2007,04,19,13,04,10.40
2007,04,19,13,05,10.50
2007,04,19,13,06,10.40
2007,04,19,13,07,10.40
2007,04,19,13,08,10.50
2007,04,19,13,09,10.60
2007,04,19,13,10,10.60
2007,04,19,13,11,10.60
2007,04,19,13,12,10.50
2007,04,19,13,13,10.40
2007,04,19,13,14,10.40
2007,04,19,13,15,10.40
2007,04,19,13,16,10.30
2007,04,19,13,17,10.30
2007,04,19,13,18,10.30
2007,04,19,13,19,10.40
2007,04,19,13,20,10.40
2007,04,19,13,21,10.40
2007,04,19,13,22,10.40
2007,04,19,13,23,10.50
2007,04,19,13,24,10.60
2007,04,19,13,25,10.60
2007,04,19,13,26,10.60
2007,04,19,13,27,10.40
2007,04,19,13,28,10.40
2007,04,19,13,29,10.40
2007,04,19,13,30,10.50
2007,04,19,13,31,10.60
2007,04,19,13,32,10.80
2007,04,19,13,33,10.90
2007,04,19,13,34,10.90
2007,04,19,13,35,11.10
2007,04,19,13,36,11.10
2007,04,19,13,37,11.20
2007,04,19,13,38,11.20
2007,04,19,13,39,11.30
2007,04,19,13,40,11.30
2007,04,19,13,41,11.30
2007,04,19,13,42,11.30
2007,04,19,13,43,11.30
2007,04,19,13,44,11.30
2007,04,19,13,45,11.30
2007,04,19,13,46,11.40
2007,04,19,13,47,11.40
2007,04,19,13,48,11.30
2007,04,19,13,49,11.20
2007,04,19,13,50,11.10
2007,04,19,13,51,11.10
2007,04,19,13,52,11.10
2007,04,19,13,53,11.10
2007,04,19,13,54,11.10
2007,04,19,13,55,11.20
2007,04,19,13,56,11.10
2007,04,19,13,57,11.10
2007,04,19,13,58,11.00
2007,04,19,13,59,10.90
2007,04,19,14,00,10.90
2007,04,19,14,01,10.90
2007,04,19,14,02,11.00
2007,04,19,14,03,10.90
2007,04,19,14,04,10.90
2007,04,19,14,05,10.90
2007,04,19,14,06,10.90
2007,04,19,14,07,10.90
2007,04,19,14,08,10.90
2007,04,19,14,09,11.00
2007,04,19,14,10,11.10
2007,04,19,14,11,11.20
2007,04,19,14,12,11.40
2007,04,19,14,13,11.40
2007,04,19,14,14,11.50
2007,04,19,14,15,11.60
2007,04,19,14,16,11.60
2007,04,19,14,17,11.60
2007,04,19,14,18,11.60
2007,04,19,14,19,11.60
2007,04,19,14,20,11.60
2007,04,19,14,21,11.60
2007,04,19,14,22,11.70
2007,04,19,14,23,11.80
2007,04,19,14,24,11.80
2007,04,19,14,25,11.80
2007,04,19,14,26,11.90
2007,04,19,14,27,11.80
2007,04,19,14,28,11.80
2007,04,19,14,29,11.80
2007,04,19,14,30,11.80
2007,04,19,14,31,11.80
2007,04,19,14,32,11.80
2007,04,19,14,33,11.80
2007,04,19,14,34,11.70
2007,04,19,14,35,11.70
2007,04,19,14,36,11.70
2007,04,19,14,37,11.70
2007,04,19,14,38,11.80
2007,04,19,14,39,11.80
2007,04,19,14,40,11.70
2007,04,19,14,41,11.70
2007,04,19,14,42,11.70
2007,04,19,14,43,11.70
2007,04,19,14,44,11.70
2007,04,19,14,45,11.80
2007,04,19,14,46,11.80
2007,04,19,14,47,11.90
2007,04,19,14,48,12.00
2007,04,19,14,49,12.20
2007,04,19,14,50,12.30
2007,04,19,14,51,12.30
2007,04,19,14,52,12.20
2007,04,19,14,53,12.20
2007,04,19,14,54,12.00
2007,04,19,14,55,11.90
2007,04,19,14,56,11.90
2007,04,19,14,57,11.80
2007,04,19,14,58,11.70
2007,04,19,14,59,11.80
2007,04,19,15,00,11.80
2007,04,19,15,01,11.70
2007,04,19,15,02,11.70
2007,04,19,15,03,11.70
2007,04,19,15,04,11.80
2007,04,19,15,05,11.80
2007,04,19,15,06,11.90
2007,04,19,15,07,12.00
2007,04,19,15,08,12.10
2007,04,19,15,09,12.20
2007,04,19,15,10,12.20
2007,04,19,15,11,12.10
2007,04,19,15,12,12.10
2007,04,19,15,13,12.10
2007,04,19,15,14,12.10
2007,04,19,15,15,12.10
2007,04,19,15,16,12.10
2007,04,19,15,17,12.10
2007,04,19,15,18,12.00
2007,04,19,15,19,11.90
2007,04,19,15,20,11.80
2007,04,19,15,21,11.70
2007,04,19,15,22,11.60
2007,04,19,15,23,11.60
2007,04,19,15,24,11.60
2007,04,19,15,25,11.70
2007,04,19,15,26,11.80
2007,04,19,15,27,11.90
2007,04,19,15,28,11.80
2007,04,19,15,29,11.80
2007,04,19,15,30,11.80
2007,04,19,15,31,11.70
2007,04,19,15,32,11.60
2007,04,19,15,33,11.60
2007,04,19,15,34,11.60
2007,04,19,15,35,11.60
2007,04,19,15,36,11.60
2007,04,19,15,37,11.60
2007,04,19,15,38,11.60
2007,04,19,15,39,11.60
2007,04,19,15,40,11.60
2007,04,19,15,41,11.60
2007,04,19,15,42,11.60
2007,04,19,15,43,11.60
2007,04,19,15,44,11.50
2007,04,19,15,45,11.40
2007,04,19,15,46,11.40
2007,04,19,15,47,11.40
2007,04,19,15,48,11.30
2007,04,19,15,49,11.20
2007,04,19,15,50,11.20
2007,04,19,15,51,11.20
2007,04,19,15,52,11.20
2007,04,19,15,53,11.30
2007,04,19,15,54,11.40
2007,04,19,15,55,11.40
2007,04,19,15,56,11.40
2007,04,19,15,57,11.40
2007,04,19,15,58,11.40
2007,04,19,15,59,11.40
2007,04,19,16,00,11.40
2007,04,19,16,01,11.50
2007,04,19,16,02,11.60
2007,04,19,16,03,11.60
2007,04,19,16,04,11.60
2007,04,19,16,05,11.60
2007,04,19,16,06,11.60
2007,04,19,16,07,11.40
2007,04,19,16,08,11.40
2007,04,19,16,09,11.30
2007,04,19,16,10,11.20
2007,04,19,16,11,11.20
2007,04,19,16,12,11.10
2007,04,19,16,13,11.10
2007,04,19,16,14,11.10
2007,04,19,16,15,11.10
2007,04,19,16,16,11.10
2007,04,19,16,17,11.00
2007,04,19,16,18,10.90
2007,04,19,16,19,10.90
2007,04,19,16,20,10.90
2007,04,19,16,21,10.90
2007,04,19,16,22,10.90
2007,04,19,16,23,10.90
2007,04,19,16,24,10.90
2007,04,19,16,25,11.00
2007,04,19,16,26,11.10
2007,04,19,16,27,11.10
2007,04,19,16,28,11.20
2007,04,19,16,29,11.30
2007,04,19,16,30,11.40
2007,04,19,16,31,11.40
2007,04,19,16,32,11.40
2007,04,19,16,33,11.40
2007,04,19,16,34,11.40
2007,04,19,16,35,11.40
2007,04,19,16,36,11.40
2007,04,19,16,37,11.40
2007,04,19,16,38,11.30
2007,04,19,16,39,11.20
2007,04,19,16,40,11.20
2007,04,19,16,41,11.10
2007,04,19,16,42,11.10
2007,04,19,16,43,11.00
2007,04,19,16,44,10.90
2007,04,19,16,45,10.90
2007,04,19,16,46,11.00
2007,04,19,16,47,11.10
2007,04,19,16,48,11.10
2007,04,19,16,49,11.20
2007,04,19,16,50,11.40
2007,04,19,16,51,11.40
2007,04,19,16,52,11.60
2007,04,19,16,53,11.60
2007,04,19,16,54,11.70
2007,04,19,16,55,11.70
2007,04,19,16,56,11.70
2007,04,19,16,57,11.70
2007,04,19,16,58,11.70
2007,04,19,16,59,11.80
2007,04,19,17,00,11.80
2007,04,19,17,01,11.80
2007,04,19,17,02,11.90
2007,04,19,17,03,11.90
2007,04,19,17,04,12.00
2007,04,19,17,05,12.10
2007,04,19,17,06,12.10
2007,04,19,17,07,12.10
2007,04,19,17,08,12.10
2007,04,19,17,09,12.10
2007,04,19,17,10,12.10
2007,04,19,17,11,12.10
2007,04,19,17,12,12.00
2007,04,19,17,13,11.90
2007,04,19,17,14,11.80
2007,04,19,17,15,11.80
2007,04,19,17,16,11.80
2007,04,19,17,17,11.80
2007,04,19,17,18,11.80
2007,04,19,17,19,11.80
2007,04,19,17,20,11.80
2007,04,19,17,21,11.80
2007,04,19,17,22,11.80
2007,04,19,17,23,11.80
2007,04,19,17,24,11.80
2007,04,19,17,25,11.80
2007,04,19,17,26,11.80
2007,04,19,17,27,11.80
2007,04,19,17,28,11.80
2007,04,19,17,29,11.80
2007,04,19,17,30,11.80
2007,04,19,17,31,11.90
2007,04,19,17,32,12.00
2007,04,19,17,33,12.10
2007,04,19,17,34,12.10
2007,04,19,17,35,12.10
2007,04,19,17,36,12.00
2007,04,19,17,37,12.10
2007,04,19,17,38,12.00
2007,04,19,17,39,12.00
2007,04,19,17,40,12.00
2007,04,19,17,41,12.10
2007,04,19,17,42,12.10
2007,04,19,17,43,12.10
2007,04,19,17,44,12.20
2007,04,19,17,45,12.20
2007,04,19,17,46,12.10
2007,04,19,17,47,12.10
2007,04,19,17,48,12.00
2007,04,19,17,49,11.90
2007,04,19,17,50,11.80